When you browse on this site, cookies collect data to enhance your experience and personalize the content and advertising you see.
Visit our Privacy Policy to learn more. By continuing to use the site, you agree to this use of cookies and data.
  • In Lithuania
  • List of Countries
  • For 7 days
  • Water Temperature
  • Satellite Maps
  • Weather Map
  • Weather Widgets
  • user-avatar
    Login

    Hourly Weather Brisbane

    Today, 16 June, Sunday

    Time Temperature Precipitation Wind Pressure Humidity
    00:00 +19°C° 0 mm 1 mps 761 mmHg 87%
    01:00 +18°C° 0 mm 1 mps 761 mmHg 88%
    02:00 +18°C° 0 mm 1 mps 761 mmHg 89%
    03:00 +18°C° 0 mm 1 mps 761 mmHg 89%
    04:00 +18°C° 0 mm 1 mps 761 mmHg 88%
    05:00 +18°C° 0.1 mm 1 mps 761 mmHg 89%
    06:00 +18°C° 0.1 mm 1 mps 762 mmHg 89%
    07:00 +18°C° 0.1 mm 1 mps 762 mmHg 90%
    08:00 +19°C° 0.6 mm 1 mps 762 mmHg 87%
    09:00 +20°C° 0.6 mm 1 mps 762 mmHg 84%
    10:00 +22°C° 0 mm 1 mps 763 mmHg 76%
    11:00 +23°C° 0.3 mm 1 mps 762 mmHg 72%
    12:00 +22°C° 0.3 mm 0 mps 761 mmHg 68%
    13:00 +23°C° 0.3 mm 0 mps 760 mmHg 64%
    14:00 +24°C° 0.4 mm 1 mps 760 mmHg 66%
    15:00 +24°C° 0.4 mm 1 mps 760 mmHg 68%
    16:00 +23°C° 0.4 mm 2 mps 760 mmHg 70%
    17:00 +22°C° 0.2 mm 1 mps 760 mmHg 74%
    18:00 +21°C° 0.2 mm 1 mps 760 mmHg 78%
    19:00 +18°C° 0.2 mm 0 mps 761 mmHg 82%
    20:00 +20°C° 0.5 mm 1 mps 761 mmHg 83%
    21:00 +20°C° 0.5 mm 1 mps 761 mmHg 83%
    22:00 +18°C° 0.5 mm 2 mps 761 mmHg 84%
    23:00 +18°C° 0.1 mm 2 mps 761 mmHg 83%

    Tomorrow, 17 June, Monday

    Time Temperature Precipitation Wind Pressure Humidity
    00:00 +18°C° 0.1 mm 2 mps 760 mmHg 81%
    01:00 +17°C° 0.1 mm 2 mps 760 mmHg 80%
    02:00 +17°C° 0.1 mm 3 mps 760 mmHg 77%
    03:00 +16°C° 0.1 mm 3 mps 760 mmHg 73%
    04:00 +14°C° 0.1 mm 3 mps 760 mmHg 69%
    05:00 +13°C° 0 mm 3 mps 760 mmHg 69%
    06:00 +13°C° 0 mm 4 mps 761 mmHg 68%
    07:00 +12°C° 0 mm 4 mps 761 mmHg 68%
    08:00 +13°C° 0 mm 4 mps 761 mmHg 61%
    09:00 +15°C° 0 mm 4 mps 761 mmHg 54%
    10:00 +17°C° 0 mm 4 mps 761 mmHg 47%
    11:00 +19°C° 0 mm 4 mps 760 mmHg 42%
    12:00 +20°C° 0 mm 4 mps 760 mmHg 38%
    13:00 +21°C° 0 mm 4 mps 759 mmHg 33%
    14:00 +21°C° 0 mm 3 mps 759 mmHg 35%
    15:00 +20°C° 0 mm 3 mps 759 mmHg 37%
    16:00 +20°C° 0 mm 2 mps 760 mmHg 39%
    17:00 +18°C° 0 mm 2 mps 760 mmHg 43%
    18:00 +17°C° 0 mm 2 mps 760 mmHg 47%
    19:00 +15°C° 0 mm 2 mps 761 mmHg 51%
    20:00 +15°C° 0 mm 2 mps 761 mmHg 54%
    21:00 +14°C° 0 mm 2 mps 761 mmHg 57%
    22:00 +13°C° 0 mm 2 mps 761 mmHg 60%
    23:00 +13°C° 0 mm 2 mps 761 mmHg 62%

    Day after tomorrow, 18 June, Tuesday

    Time Temperature Precipitation Wind Pressure Humidity
    00:00 +12°C° 0 mm 2 mps 761 mmHg 64%
    01:00 +12°C° 0 mm 2 mps 761 mmHg 66%
    02:00 +12°C° 0 mm 2 mps 761 mmHg 68%
    03:00 +10°C° 0 mm 2 mps 761 mmHg 69%
    04:00 +10°C° 0 mm 2 mps 761 mmHg 70%
    05:00 +10°C° 0 mm 2 mps 761 mmHg 71%
    06:00 +10°C° 0 mm 2 mps 761 mmHg 71%
    07:00 +10°C° 0 mm 2 mps 762 mmHg 72%
    08:00 +13°C° 0 mm 2 mps 762 mmHg 65%
    09:00 +16°C° 0 mm 2 mps 762 mmHg 58%
    10:00 +18°C° 0 mm 2 mps 762 mmHg 52%
    11:00 +19°C° 0 mm 2 mps 761 mmHg 51%
    12:00 +20°C° 0 mm 2 mps 761 mmHg 50%
    13:00 +23°C° 0 mm 2 mps 760 mmHg 49%
    14:00 +22°C° 0 mm 1 mps 760 mmHg 52%
    15:00 +22°C° 0 mm 1 mps 760 mmHg 54%
    16:00 +22°C° 0 mm 1 mps 759 mmHg 57%
    17:00 +21°C° 0 mm 1 mps 760 mmHg 62%
    18:00 +19°C° 0 mm 1 mps 761 mmHg 68%
    19:00 +16°C° 0 mm 0 mps 761 mmHg 73%
    20:00 +16°C° 0 mm 1 mps 761 mmHg 75%
    21:00 +16°C° 0 mm 1 mps 761 mmHg 78%
    22:00 +15°C° 0 mm 1 mps 761 mmHg 80%
    23:00 +15°C° 0 mm 1 mps 761 mmHg 81%

    19 June, Wednesday

    Time Temperature Precipitation Wind Pressure Humidity
    00:00 +15°C° 0 mm 1 mps 761 mmHg 82%
    01:00 +14°C° 0 mm 1 mps 761 mmHg 83%
    02:00 +14°C° 0 mm 2 mps 761 mmHg 82%
    03:00 +14°C° 0 mm 2 mps 761 mmHg 82%
    04:00 +13°C° 0 mm 2 mps 761 mmHg 81%
    05:00 +13°C° 0 mm 2 mps 761 mmHg 81%
    06:00 +13°C° 0 mm 2 mps 761 mmHg 80%
    07:00 +12°C° 0 mm 2 mps 762 mmHg 80%
    08:00 +15°C° 0 mm 2 mps 762 mmHg 72%
    09:00 +17°C° 0 mm 2 mps 762 mmHg 64%
    10:00 +19°C° 0 mm 2 mps 762 mmHg 56%
    11:00 +20°C° 0 mm 2 mps 761 mmHg 51%
    12:00 +23°C° 0 mm 1 mps 761 mmHg 46%
    13:00 +24°C° 0 mm 1 mps 761 mmHg 41%
    14:00 +23°C° 0 mm 1 mps 761 mmHg 43%
    15:00 +23°C° 0 mm 2 mps 761 mmHg 48%
    16:00 +21°C° 0 mm 2 mps 761 mmHg 52%
    17:00 +19°C° 0.1 mm 3 mps 761 mmHg 62%
    18:00 +18°C° 0.1 mm 3 mps 762 mmHg 71%
    19:00 +16°C° 0.1 mm 3 mps 763 mmHg 81%
    20:00 +16°C° 0 mm 3 mps 763 mmHg 82%
    21:00 +16°C° 0 mm 3 mps 763 mmHg 84%
    22:00 +14°C° 0 mm 3 mps 763 mmHg 85%
    23:00 +14°C° 0 mm 3 mps 763 mmHg 86%

    20 June, Thursday

    Time Temperature Precipitation Wind Pressure Humidity
    00:00 +13°C° 0 mm 3 mps 763 mmHg 86%
    01:00 +13°C° 0 mm 3 mps 763 mmHg 87%
    02:00 +13°C° 0 mm 2 mps 763 mmHg 87%
    03:00 +13°C° 0 mm 2 mps 763 mmHg 88%
    04:00 +13°C° 0 mm 2 mps 763 mmHg 88%
    05:00 +13°C° 0 mm 2 mps 763 mmHg 87%
    06:00 +13°C° 0 mm 2 mps 764 mmHg 87%
    07:00 +12°C° 0 mm 2 mps 764 mmHg 86%
    08:00 +14°C° 0 mm 2 mps 764 mmHg 80%
    09:00 +15°C° 0 mm 2 mps 764 mmHg 75%
    10:00 +16°C° 0 mm 3 mps 764 mmHg 69%
    11:00 +17°C° 0 mm 3 mps 763 mmHg 65%
    12:00 +19°C° 0 mm 3 mps 763 mmHg 62%
    13:00 +20°C° 0 mm 3 mps 762 mmHg 59%
    14:00 +20°C° 0.1 mm 3 mps 762 mmHg 62%
    15:00 +19°C° 0.1 mm 3 mps 762 mmHg 64%
    16:00 +19°C° 0.1 mm 3 mps 762 mmHg 67%
    17:00 +18°C° 0.1 mm 3 mps 762 mmHg 70%
    18:00 +17°C° 0.1 mm 3 mps 763 mmHg 72%
    19:00 +17°C° 0.1 mm 3 mps 763 mmHg 75%
    20:00 +16°C° 0 mm 3 mps 763 mmHg 76%
    21:00 +16°C° 0 mm 2 mps 763 mmHg 77%
    22:00 +16°C° 0 mm 2 mps 762 mmHg 78%
    23:00 +16°C° 0.1 mm 2 mps 762 mmHg 78%

    21 June, Friday

    Time Temperature Precipitation Wind Pressure Humidity
    00:00 +16°C° 0.1 mm 2 mps 762 mmHg 78%
    01:00 +16°C° 0.1 mm 2 mps 761 mmHg 78%
    02:00 +15°C° 0.1 mm 2 mps 761 mmHg 80%
    03:00 +15°C° 0.1 mm 2 mps 761 mmHg 82%
    04:00 +15°C° 0.1 mm 2 mps 760 mmHg 84%
    05:00 +14°C° 0 mm 2 mps 761 mmHg 85%
    06:00 +13°C° 0 mm 3 mps 761 mmHg 86%
    07:00 +13°C° 0 mm 3 mps 761 mmHg 86%
    08:00 +14°C° 0 mm 3 mps 761 mmHg 76%
    09:00 +15°C° 0 mm 4 mps 761 mmHg 66%
    10:00 +16°C° 0 mm 5 mps 761 mmHg 56%
    11:00 +17°C° 0 mm 5 mps 760 mmHg 48%
    12:00 +17°C° 0 mm 6 mps 760 mmHg 40%
    13:00 +19°C° 0 mm 6 mps 760 mmHg 33%
    14:00 +17°C° 0 mm 6 mps 760 mmHg 32%
    15:00 +16°C° 0 mm 5 mps 760 mmHg 31%
    16:00 +16°C° 0 mm 5 mps 760 mmHg 30%
    17:00 +14°C° 0 mm 5 mps 760 mmHg 33%
    18:00 +13°C° 0 mm 5 mps 761 mmHg 36%
    19:00 +10°C° 0 mm 5 mps 762 mmHg 39%
    20:00 +9°C° 0 mm 5 mps 762 mmHg 41%
    21:00 +10°C° 0 mm 4 mps 762 mmHg 43%
    22:00 +8°C° 0 mm 4 mps 762 mmHg 45%
    23:00 +7°C° 0 mm 4 mps 762 mmHg 46%
    Show more